TimeAKDT,TemperatureF,Dew PointF,Humidity,Sea Level PressureIn,VisibilityMPH,Wind Direction,Wind SpeedMPH,Gust SpeedMPH,PrecipitationIn,Events,Conditions,WindDirDegrees,DateUTC
12:12 AM,46.9,45.0,93,30.35,10.0,SE,10.4,-,N/A,,Overcast,140,2012-10-07 08:12:00
12:53 AM,46.9,46.0,97,30.35,10.0,SSE,9.2,18.4,N/A,,Overcast,150,2012-10-07 08:53:00
1:53 AM,46.9,46.0,97,30.36,10.0,SE,9.2,18.4,0.01,Rain,Light Rain,140,2012-10-07 09:53:00
2:53 AM,46.9,46.0,97,30.35,10.0,SE,10.4,20.7,0.02,Rain,Light Rain,140,2012-10-07 10:53:00
3:53 AM,46.9,46.0,97,30.35,10.0,SE,9.2,-,0.02,Rain,Light Rain,140,2012-10-07 11:53:00
4:53 AM,46.9,45.0,93,30.34,10.0,SE,10.4,17.3,0.01,Rain,Light Rain,140,2012-10-07 12:53:00
5:25 AM,46.9,45.0,93,30.34,10.0,SE,10.4,17.3,0.00,Rain,Light Rain,140,2012-10-07 13:25:00
6:38 AM,46.9,45.0,93,30.33,10.0,SE,12.7,19.6,0.00,,Overcast,140,2012-10-07 14:38:00
6:53 AM,46.0,45.0,96,30.34,10.0,SE,10.4,18.4,0.00,Rain,Light Rain,140,2012-10-07 14:53:00
7:53 AM,46.0,45.0,96,30.32,10.0,SSE,10.4,17.3,0.02,Rain,Light Rain,150,2012-10-07 15:53:00
8:53 AM,46.9,45.0,93,30.34,10.0,SSE,10.4,20.7,0.00,,Overcast,150,2012-10-07 16:53:00
9:53 AM,46.0,45.0,96,30.34,10.0,SSE,9.2,18.4,0.00,Rain,Light Rain,150,2012-10-07 17:53:00
10:53 AM,46.9,44.1,90,30.35,10.0,SE,9.2,18.4,0.00,,Overcast,140,2012-10-07 18:53:00
11:53 AM,46.9,45.0,93,30.35,10.0,SSE,11.5,19.6,0.01,Rain,Light Rain,150,2012-10-07 19:53:00
12:53 PM,46.9,45.0,93,30.35,10.0,SE,13.8,21.9,0.01,Rain,Light Rain,140,2012-10-07 20:53:00
1:53 PM,46.9,45.0,93,30.35,10.0,SSE,10.4,20.7,0.00,Rain,Light Rain,150,2012-10-07 21:53:00
2:53 PM,48.0,45.0,89,30.34,10.0,SE,8.1,23.0,0.00,,Overcast,130,2012-10-07 22:53:00
3:53 PM,48.0,44.1,86,30.34,10.0,ESE,9.2,18.4,N/A,,Overcast,120,2012-10-07 23:53:00
4:37 PM,48.0,44.1,86,30.33,10.0,ESE,8.1,17.3,N/A,,Overcast,110,2012-10-08 00:37:00
4:53 PM,48.0,44.1,86,30.32,10.0,ESE,9.2,17.3,N/A,,Overcast,120,2012-10-08 00:53:00
5:12 PM,48.9,44.1,83,30.32,10.0,ESE,10.4,-,N/A,,Overcast,120,2012-10-08 01:12:00
5:53 PM,48.0,44.1,86,30.33,10.0,ESE,6.9,-,N/A,,Overcast,110,2012-10-08 01:53:00
6:05 PM,48.0,44.1,86,30.32,10.0,Variable,5.8,-,N/A,,Overcast,0,2012-10-08 02:05:00
6:53 PM,46.9,44.1,90,30.32,10.0,East,10.4,17.3,N/A,,Overcast,100,2012-10-08 02:53:00
7:53 PM,46.0,44.1,93,30.32,10.0,ENE,10.4,-,N/A,,Overcast,70,2012-10-08 03:53:00
8:53 PM,46.0,44.1,93,30.32,10.0,East,10.4,-,N/A,,Overcast,80,2012-10-08 04:53:00
9:53 PM,46.0,44.1,93,30.32,10.0,East,6.9,-,N/A,,Overcast,80,2012-10-08 05:53:00
11:53 PM,46.0,44.1,93,30.31,10.0,East,12.7,19.6,N/A,,Scattered Clouds,100,2012-10-08 07:53:00